When you browse on this site, cookies collect data to enhance your experience and personalize the content and advertising you see.
Visit our Privacy Policy to learn more. By continuing to use the site, you agree to this use of cookies and data.
  • In Romania
  • List of Countries
  • For 7 days
  • Water Temperature
  • Weather Map
  • Weather Widgets
  • user-avatar
    Login

    Hourly Weather Klagenfurt

    Today, 13 December, Friday

    Time Temperature Precipitation Wind Pressure Humidity
    00:00 -3°C° 0.1 mm 0 mps 676 mmHg 94%
    01:00 -2°C° 0 mm 1 mps 676 mmHg 95%
    02:00 -2°C° 0.1 mm 1 mps 675 mmHg 95%
    03:00 -3°C° 0.1 mm 1 mps 674 mmHg 94%
    04:00 -4°C° 0.1 mm 0 mps 673 mmHg 94%
    05:00 -3°C° 0.1 mm 1 mps 673 mmHg 94%
    06:00 -3°C° 0.1 mm 1 mps 672 mmHg 94%
    07:00 -4°C° 0 mm 2 mps 672 mmHg 94%
    08:00 -3°C° 0.1 mm 2 mps 672 mmHg 91%
    09:00 -3°C° 0.1 mm 2 mps 671 mmHg 88%
    10:00 -2°C° 0.1 mm 2 mps 670 mmHg 85%
    11:00 0°C° 0.3 mm 1 mps 669 mmHg 86%
    12:00 0°C° 0.3 mm 1 mps 669 mmHg 87%
    13:00 +1°C° 0.3 mm 1 mps 668 mmHg 89%
    14:00 +1°C° 1.7 mm 1 mps 668 mmHg 91%
    15:00 +1°C° 1.7 mm 1 mps 667 mmHg 94%
    16:00 0°C° 1.7 mm 1 mps 667 mmHg 96%
    17:00 -2°C° 1.9 mm 2 mps 667 mmHg 96%
    18:00 -2°C° 1.9 mm 2 mps 667 mmHg 96%
    19:00 -2°C° 1.9 mm 2 mps 667 mmHg 95%
    20:00 -2°C° 2 mm 2 mps 667 mmHg 95%
    21:00 -2°C° 2 mm 2 mps 668 mmHg 94%
    22:00 -2°C° 2 mm 3 mps 668 mmHg 94%
    23:00 -2°C° 0.2 mm 2 mps 669 mmHg 93%

    Tomorrow, 14 December, Saturday

    Time Temperature Precipitation Wind Pressure Humidity
    00:00 -2°C° 0.2 mm 2 mps 670 mmHg 93%
    01:00 -2°C° 0.2 mm 2 mps 672 mmHg 93%
    02:00 0°C° 0 mm 1 mps 672 mmHg 92%
    03:00 0°C° 0 mm 1 mps 673 mmHg 91%
    04:00 0°C° 0 mm 1 mps 674 mmHg 91%
    05:00 -1°C° 0 mm 1 mps 674 mmHg 89%
    06:00 -2°C° 0 mm 1 mps 675 mmHg 87%
    07:00 -2°C° 0 mm 1 mps 675 mmHg 85%
    08:00 -2°C° 0 mm 0 mps 676 mmHg 84%
    09:00 -1°C° 0 mm 0 mps 677 mmHg 82%
    10:00 +1°C° 0 mm 0 mps 678 mmHg 81%
    11:00 +1°C° 0 mm 0 mps 678 mmHg 82%
    12:00 +2°C° 0 mm 0 mps 678 mmHg 83%
    13:00 +3°C° 0 mm 0 mps 679 mmHg 84%
    14:00 +2°C° 0 mm 0 mps 679 mmHg 86%
    15:00 +1°C° 0 mm 0 mps 680 mmHg 88%
    16:00 0°C° 0 mm 0 mps 680 mmHg 90%
    17:00 -1°C° 0 mm 0 mps 681 mmHg 86%
    18:00 -1°C° 0 mm 0 mps 681 mmHg 83%
    19:00 -1°C° 0 mm 1 mps 682 mmHg 80%
    20:00 -2°C° 0 mm 0 mps 683 mmHg 78%
    21:00 -2°C° 0 mm 0 mps 683 mmHg 77%
    22:00 -2°C° 0 mm 0 mps 684 mmHg 76%
    23:00 -2°C° 0 mm 0 mps 684 mmHg 75%

    Day after tomorrow, 15 December, Sunday

    Time Temperature Precipitation Wind Pressure Humidity
    00:00 -2°C° 0 mm 0 mps 684 mmHg 75%
    01:00 -2°C° 0 mm 0 mps 685 mmHg 75%
    02:00 -2°C° 0 mm 0 mps 685 mmHg 74%
    03:00 -2°C° 0 mm 0 mps 685 mmHg 74%
    04:00 -2°C° 0 mm 0 mps 685 mmHg 74%
    05:00 -1°C° 0 mm 1 mps 685 mmHg 76%
    06:00 -1°C° 0 mm 1 mps 685 mmHg 77%
    07:00 -1°C° 0 mm 1 mps 685 mmHg 78%
    08:00 0°C° 0 mm 1 mps 685 mmHg 80%
    09:00 +1°C° 0 mm 1 mps 686 mmHg 82%
    10:00 +3°C° 0 mm 1 mps 686 mmHg 83%
    11:00 +3°C° 0 mm 1 mps 687 mmHg 85%
    12:00 +4°C° 0 mm 1 mps 687 mmHg 87%
    13:00 +5°C° 0 mm 1 mps 687 mmHg 89%
    14:00 +3°C° 0 mm 0 mps 687 mmHg 91%
    15:00 +3°C° 0 mm 0 mps 687 mmHg 92%
    16:00 +2°C° 0 mm 0 mps 687 mmHg 93%
    17:00 +2°C° 0 mm 0 mps 688 mmHg 94%
    18:00 +2°C° 0 mm 0 mps 688 mmHg 94%
    19:00 +3°C° 0 mm 1 mps 689 mmHg 94%
    20:00 +3°C° 0 mm 1 mps 689 mmHg 94%
    21:00 +3°C° 0 mm 1 mps 689 mmHg 94%
    22:00 +3°C° 0 mm 1 mps 690 mmHg 94%
    23:00 +3°C° 0 mm 1 mps 690 mmHg 95%

    16 December, Monday

    Time Temperature Precipitation Wind Pressure Humidity
    00:00 +4°C° 0 mm 1 mps 690 mmHg 95%
    01:00 +4°C° 0 mm 1 mps 690 mmHg 96%
    02:00 +4°C° 0 mm 1 mps 690 mmHg 96%
    03:00 +4°C° 0 mm 1 mps 690 mmHg 96%
    04:00 +4°C° 0 mm 1 mps 689 mmHg 96%
    05:00 +4°C° 0 mm 1 mps 690 mmHg 97%
    06:00 +4°C° 0 mm 1 mps 690 mmHg 97%
    07:00 +4°C° 0 mm 1 mps 690 mmHg 97%
    08:00 +4°C° 0 mm 1 mps 690 mmHg 97%
    09:00 +5°C° 0 mm 1 mps 690 mmHg 97%
    10:00 +5°C° 0 mm 1 mps 690 mmHg 97%
    11:00 +5°C° 0 mm 1 mps 690 mmHg 97%
    12:00 +6°C° 0 mm 1 mps 689 mmHg 97%
    13:00 +5°C° 0 mm 2 mps 689 mmHg 97%
    14:00 +5°C° 0 mm 2 mps 689 mmHg 97%
    15:00 +4°C° 0 mm 2 mps 689 mmHg 97%
    16:00 +4°C° 0 mm 2 mps 689 mmHg 97%
    17:00 +4°C° 0 mm 2 mps 689 mmHg 97%
    18:00 +4°C° 0 mm 2 mps 689 mmHg 97%
    19:00 +4°C° 0 mm 2 mps 689 mmHg 97%
    20:00 +4°C° 0 mm 2 mps 689 mmHg 97%
    21:00 +4°C° 0 mm 2 mps 689 mmHg 96%
    22:00 +4°C° 0 mm 2 mps 689 mmHg 96%
    23:00 +4°C° 0 mm 2 mps 689 mmHg 96%

    17 December, Tuesday

    Time Temperature Precipitation Wind Pressure Humidity
    00:00 +5°C° 0 mm 1 mps 688 mmHg 95%
    01:00 +5°C° 0 mm 1 mps 688 mmHg 95%
    02:00 +5°C° 0 mm 1 mps 688 mmHg 95%
    03:00 +5°C° 0 mm 1 mps 688 mmHg 96%
    04:00 +5°C° 0 mm 1 mps 688 mmHg 96%
    05:00 +5°C° 0.1 mm 1 mps 688 mmHg 96%
    06:00 +6°C° 0.1 mm 1 mps 688 mmHg 97%
    07:00 +6°C° 0.1 mm 1 mps 688 mmHg 97%
    08:00 +6°C° 0.2 mm 1 mps 689 mmHg 97%
    09:00 +6°C° 0.2 mm 1 mps 689 mmHg 98%
    10:00 +7°C° 0.2 mm 1 mps 689 mmHg 98%
    11:00 +7°C° 0.1 mm 1 mps 689 mmHg 98%
    12:00 +8°C° 0.1 mm 1 mps 689 mmHg 98%
    13:00 +8°C° 0.1 mm 1 mps 688 mmHg 97%
    14:00 +8°C° 0.1 mm 1 mps 688 mmHg 97%
    15:00 +7°C° 0.1 mm 2 mps 688 mmHg 97%
    16:00 +7°C° 0.1 mm 2 mps 688 mmHg 97%
    17:00 +6°C° 0.1 mm 2 mps 688 mmHg 97%
    18:00 +6°C° 0.1 mm 2 mps 689 mmHg 97%
    19:00 +6°C° 0.1 mm 2 mps 689 mmHg 97%
    20:00 +6°C° 0.1 mm 2 mps 689 mmHg 97%
    21:00 +7°C° 0.1 mm 1 mps 689 mmHg 96%
    22:00 +7°C° 0.1 mm 1 mps 689 mmHg 96%
    23:00 +7°C° 0.1 mm 1 mps 689 mmHg 96%

    18 December, Wednesday

    Time Temperature Precipitation Wind Pressure Humidity
    00:00 +7°C° 0.1 mm 1 mps 689 mmHg 96%
    01:00 +7°C° 0.1 mm 1 mps 689 mmHg 97%
    02:00 +7°C° 0.1 mm 1 mps 689 mmHg 97%
    03:00 +7°C° 0.1 mm 1 mps 689 mmHg 97%
    04:00 +7°C° 0.1 mm 1 mps 689 mmHg 97%
    05:00 +7°C° 0.1 mm 1 mps 689 mmHg 97%
    06:00 +7°C° 0.1 mm 1 mps 689 mmHg 97%
    07:00 +7°C° 0.1 mm 1 mps 689 mmHg 97%
    08:00 +8°C° 0.1 mm 1 mps 689 mmHg 97%
    09:00 +8°C° 0.1 mm 1 mps 689 mmHg 97%
    10:00 +8°C° 0.1 mm 1 mps 690 mmHg 96%
    11:00 +8°C° 0.1 mm 1 mps 689 mmHg 96%
    12:00 +9°C° 0.1 mm 1 mps 689 mmHg 96%
    13:00 +8°C° 0.1 mm 0 mps 689 mmHg 96%
    14:00 +8°C° 0.1 mm 0 mps 689 mmHg 96%
    15:00 +7°C° 0.1 mm 0 mps 688 mmHg 96%
    16:00 +7°C° 0.1 mm 0 mps 688 mmHg 96%
    17:00 +7°C° 0.1 mm 0 mps 688 mmHg 94%
    18:00 +7°C° 0.1 mm 0 mps 688 mmHg 93%
    19:00 +7°C° 0.1 mm 0 mps 688 mmHg 92%
    20:00 +7°C° 0.1 mm 0 mps 688 mmHg 92%
    21:00 +7°C° 0.1 mm 0 mps 687 mmHg 93%
    22:00 +7°C° 0.1 mm 0 mps 687 mmHg 93%
    23:00 +6°C° 0.1 mm 0 mps 687 mmHg 93%
    Show more